Time,TemperatureF,DewpointF,PressureIn,WindDirection,WindDirectionDegrees,WindSpeedMPH,WindSpeedGustMPH,Humidity,HourlyPrecipIn,Conditions,Clouds,dailyrainin,SolarRadiationWatts/m^2,SoftwareType,DateUTC
2013-03-26 00:00:00,40.4,26.8,30.27,NNW,336,0.0,7.0,58,0.00,,,0.00,0,Wunderground v.1.15,2013-03-26 05:00:00,
2013-03-26 00:05:00,40.3,26.7,30.27,NNW,337,0.0,7.0,58,0.00,,,0.00,0,Wunderground v.1.15,2013-03-26 05:05:00,
2013-03-26 00:10:00,40.2,26.6,30.27,NNW,337,0.0,7.0,58,0.00,,,0.00,0,Wunderground v.1.15,2013-03-26 05:10:00,
2013-03-26 00:16:00,40.1,26.5,30.27,NNW,338,0.0,7.0,58,0.00,,,0.00,0,Wunderground v.1.15,2013-03-26 05:16:00,
2013-03-26 00:22:00,39.9,26.7,30.27,NNW,341,0.0,7.0,59,0.00,,,0.00,0,Wunderground v.1.15,2013-03-26 05:22:00,
2013-03-26 00:27:00,39.8,26.6,30.27,North,360,0.0,7.0,59,0.00,,,0.00,0,Wunderground v.1.15,2013-03-26 05:27:00,
2013-03-26 00:32:00,39.7,26.9,30.27,North,358,0.0,7.0,60,0.00,,,0.00,0,Wunderground v.1.15,2013-03-26 05:32:00,
2013-03-26 00:37:00,39.6,26.8,30.27,NNW,330,0.0,7.0,60,0.00,,,0.00,0,Wunderground v.1.15,2013-03-26 05:37:00,
2013-03-26 00:43:00,39.5,26.8,30.27,NNW,335,1.0,7.0,60,0.00,,,0.00,0,Wunderground v.1.15,2013-03-26 05:43:00,
2013-03-26 00:48:00,39.4,27.1,30.27,NNW,341,1.0,7.0,61,0.00,,,0.00,0,Wunderground v.1.15,2013-03-26 05:48:00,
2013-03-26 00:53:00,39.3,27.4,30.27,NNW,341,0.0,7.0,62,0.00,,,0.00,0,Wunderground v.1.15,2013-03-26 05:53:00,
2013-03-26 00:58:00,39.1,27.2,30.27,NW,307,0.0,7.0,62,0.00,,,0.00,0,Wunderground v.1.15,2013-03-26 05:58:00,
2013-03-26 01:04:00,38.9,27.0,30.27,NNW,331,0.0,0.0,62,0.00,,,0.00,0,Wunderground v.1.15,2013-03-26 06:04:00,
2013-03-26 01:09:00,38.8,27.3,30.27,NNW,330,0.0,0.0,63,0.00,,,0.00,0,Wunderground v.1.15,2013-03-26 06:09:00,
2013-03-26 01:15:00,38.6,27.1,30.28,NNW,331,0.0,0.0,63,0.00,,,0.00,0,Wunderground v.1.15,2013-03-26 06:15:00,
2013-03-26 01:20:00,38.5,27.4,30.28,NNW,331,0.0,0.0,64,0.00,,,0.00,0,Wunderground v.1.15,2013-03-26 06:20:00,
2013-03-26 01:25:00,38.3,27.2,30.28,NNW,331,0.0,0.0,64,0.00,,,0.00,0,Wunderground v.1.15,2013-03-26 06:25:00,
2013-03-26 01:31:00,38.2,27.5,30.28,NNW,333,0.0,0.0,65,0.00,,,0.00,0,Wunderground v.1.15,2013-03-26 06:31:00,
2013-03-26 01:37:00,38.0,27.3,30.28,NNW,333,0.0,0.0,65,0.00,,,0.00,0,Wunderground v.1.15,2013-03-26 06:37:00,
2013-03-26 01:43:00,37.9,27.2,30.28,NNW,331,0.0,0.0,65,0.00,,,0.00,0,Wunderground v.1.15,2013-03-26 06:43:00,
2013-03-26 01:48:00,37.8,27.5,30.28,NNW,331,0.0,0.0,66,0.00,,,0.00,0,Wunderground v.1.15,2013-03-26 06:48:00,
2013-03-26 01:53:00,37.7,27.4,30.28,NNW,342,0.0,0.0,66,0.00,,,0.00,0,Wunderground v.1.15,2013-03-26 06:53:00,
2013-03-26 01:59:00,37.7,27.4,30.28,North,350,1.0,4.0,66,0.00,,,0.00,0,Wunderground v.1.15,2013-03-26 06:59:00,
2013-03-26 02:04:00,37.5,27.2,30.28,NNW,329,1.0,3.0,66,0.00,,,0.00,0,Wunderground v.1.15,2013-03-26 07:04:00,
2013-03-26 02:10:00,37.5,27.2,30.28,NNE,19,2.0,2.0,66,0.00,,,0.00,0,Wunderground v.1.15,2013-03-26 07:10:00,
2013-03-26 02:15:00,37.4,27.4,30.29,North,5,1.0,4.0,67,0.00,,,0.00,0,Wunderground v.1.15,2013-03-26 07:15:00,
2013-03-26 02:21:00,37.2,27.2,30.29,NNE,15,0.0,2.0,67,0.00,,,0.00,0,Wunderground v.1.15,2013-03-26 07:21:00,
2013-03-26 02:26:00,37.1,27.5,30.29,North,10,1.0,2.0,68,0.00,,,0.00,0,Wunderground v.1.15,2013-03-26 07:26:00,
2013-03-26 02:31:00,37.0,27.4,30.29,NNW,327,1.0,3.0,68,0.00,,,0.00,0,Wunderground v.1.15,2013-03-26 07:31:00,
2013-03-26 02:37:00,36.8,27.2,30.30,NNW,327,1.0,3.0,68,0.00,,,0.00,0,Wunderground v.1.15,2013-03-26 07:37:00,
2013-03-26 02:43:00,36.6,27.4,30.30,North,354,0.0,0.0,69,0.00,,,0.00,0,Wunderground v.1.15,2013-03-26 07:43:00,
2013-03-26 02:48:00,36.5,27.3,30.29,North,353,0.0,0.0,69,0.00,,,0.00,0,Wunderground v.1.15,2013-03-26 07:48:00,
2013-03-26 02:53:00,36.3,27.4,30.29,North,353,0.0,0.0,70,0.00,,,0.00,0,Wunderground v.1.15,2013-03-26 07:53:00,
2013-03-26 02:58:00,36.1,27.6,30.29,North,352,0.0,0.0,71,0.00,,,0.00,0,Wunderground v.1.15,2013-03-26 07:58:00,
2013-03-26 03:03:00,35.9,27.4,30.29,North,352,0.0,0.0,71,0.00,,,0.00,0,Wunderground v.1.15,2013-03-26 08:03:00,
2013-03-26 03:09:00,35.7,27.2,30.30,North,352,0.0,0.0,71,0.00,,,0.00,0,Wunderground v.1.15,2013-03-26 08:09:00,
2013-03-26 03:14:00,35.5,27.0,30.30,North,352,0.0,0.0,71,0.00,,,0.00,0,Wunderground v.1.15,2013-03-26 08:14:00,
2013-03-26 03:19:00,35.3,27.2,30.30,North,352,0.0,0.0,72,0.00,,,0.00,0,Wunderground v.1.15,2013-03-26 08:19:00,
2013-03-26 03:25:00,35.1,27.3,30.30,North,352,0.0,0.0,73,0.00,,,0.00,0,Wunderground v.1.15,2013-03-26 08:25:00,
2013-03-26 03:32:00,34.8,27.0,30.30,North,352,0.0,0.0,73,0.00,,,0.00,0,Wunderground v.1.15,2013-03-26 08:32:00,
2013-03-26 03:38:00,34.4,26.6,30.30,North,352,0.0,0.0,73,0.00,,,0.00,0,Wunderground v.1.15,2013-03-26 08:38:00,
2013-03-26 03:43:00,34.4,27.0,30.31,North,352,0.0,0.0,74,0.00,,,0.00,0,Wunderground v.1.15,2013-03-26 08:43:00,
2013-03-26 03:48:00,34.1,26.7,30.31,North,352,0.0,0.0,74,0.00,,,0.00,0,Wunderground v.1.15,2013-03-26 08:48:00,
2013-03-26 03:53:00,33.8,26.7,30.31,North,352,0.0,0.0,75,0.00,,,0.00,0,Wunderground v.1.15,2013-03-26 08:53:00,
2013-03-26 03:59:00,33.6,26.8,30.30,North,352,0.0,0.0,76,0.00,,,0.00,0,Wunderground v.1.15,2013-03-26 08:59:00,
2013-03-26 04:04:00,33.3,26.9,30.30,North,352,0.0,0.0,77,0.00,,,0.00,0,Wunderground v.1.15,2013-03-26 09:04:00,
2013-03-26 04:10:00,33.1,27.0,30.31,North,352,0.0,0.0,78,0.00,,,0.00,0,Wunderground v.1.15,2013-03-26 09:10:00,
2013-03-26 04:15:00,33.0,26.9,30.31,North,352,0.0,0.0,78,0.00,,,0.00,0,Wunderground v.1.15,2013-03-26 09:15:00,
2013-03-26 04:20:00,32.9,27.1,30.30,North,352,0.0,0.0,79,0.00,,,0.00,0,Wunderground v.1.15,2013-03-26 09:20:00,
2013-03-26 04:26:00,32.7,27.2,30.31,North,352,0.0,0.0,80,0.00,,,0.00,0,Wunderground v.1.15,2013-03-26 09:26:00,
2013-03-26 04:31:00,32.6,27.1,30.31,North,352,0.0,0.0,80,0.00,,,0.00,0,Wunderground v.1.15,2013-03-26 09:31:00,
2013-03-26 04:37:00,32.4,27.2,30.31,North,352,0.0,0.0,81,0.00,,,0.00,0,Wunderground v.1.15,2013-03-26 09:37:00,
2013-03-26 04:42:00,32.2,27.3,30.31,North,352,0.0,0.0,82,0.00,,,0.00,0,Wunderground v.1.15,2013-03-26 09:42:00,
2013-03-26 04:48:00,32.0,27.4,30.31,North,352,0.0,0.0,83,0.00,,,0.00,0,Wunderground v.1.15,2013-03-26 09:48:00,
2013-03-26 04:54:00,31.7,27.7,30.31,North,352,0.0,0.0,85,0.00,,,0.00,0,Wunderground v.1.15,2013-03-26 09:54:00,
2013-03-26 04:59:00,31.5,27.5,30.31,North,352,0.0,0.0,85,0.00,,,0.00,0,Wunderground v.1.15,2013-03-26 09:59:00,
2013-03-26 05:05:00,31.3,27.3,30.31,North,352,0.0,0.0,85,0.00,,,0.00,0,Wunderground v.1.15,2013-03-26 10:05:00,
2013-03-26 05:11:00,31.3,27.0,30.31,North,352,0.0,0.0,84,0.00,,,0.00,0,Wunderground v.1.15,2013-03-26 10:11:00,
2013-03-26 05:16:00,31.4,26.8,30.30,North,352,0.0,0.0,83,0.00,,,0.00,0,Wunderground v.1.15,2013-03-26 10:16:00,
2013-03-26 05:22:00,31.4,26.5,30.30,North,352,0.0,0.0,82,0.00,,,0.00,0,Wunderground v.1.15,2013-03-26 10:22:00,
2013-03-26 05:28:00,31.4,26.2,30.30,North,352,0.0,0.0,81,0.00,,,0.00,0,Wunderground v.1.15,2013-03-26 10:28:00,
2013-03-26 05:33:00,31.4,26.2,30.31,North,352,0.0,0.0,81,0.00,,,0.00,0,Wunderground v.1.15,2013-03-26 10:33:00,
2013-03-26 05:38:00,31.4,26.2,30.30,North,352,0.0,0.0,81,0.00,,,0.00,0,Wunderground v.1.15,2013-03-26 10:38:00,
2013-03-26 05:43:00,31.5,26.0,30.31,WNW,297,0.0,1.0,80,0.00,,,0.00,0,Wunderground v.1.15,2013-03-26 10:43:00,
2013-03-26 05:49:00,31.6,25.8,30.31,WNW,292,0.0,1.0,79,0.00,,,0.00,0,Wunderground v.1.15,2013-03-26 10:49:00,
2013-03-26 05:54:00,31.6,25.8,30.31,WNW,295,0.0,0.0,79,0.00,,,0.00,0,Wunderground v.1.15,2013-03-26 10:54:00,
2013-03-26 06:00:00,31.5,25.7,30.31,WNW,294,0.0,0.0,79,0.00,,,0.00,0,Wunderground v.1.15,2013-03-26 11:00:00,
2013-03-26 06:05:00,31.5,25.7,30.31,WNW,294,0.0,0.0,79,0.00,,,0.00,0,Wunderground v.1.15,2013-03-26 11:05:00,
2013-03-26 06:11:00,31.5,25.4,30.31,WNW,293,0.0,0.0,78,0.00,,,0.00,0,Wunderground v.1.15,2013-03-26 11:11:00,
2013-03-26 06:16:00,31.4,25.3,30.31,WNW,295,0.0,0.0,78,0.00,,,0.00,0,Wunderground v.1.15,2013-03-26 11:16:00,
2013-03-26 06:21:00,31.3,25.5,30.32,WNW,294,0.0,0.0,79,0.00,,,0.00,0,Wunderground v.1.15,2013-03-26 11:21:00,
2013-03-26 06:27:00,31.1,25.3,30.32,WNW,294,0.0,0.0,79,0.00,,,0.00,0,Wunderground v.1.15,2013-03-26 11:27:00,
2013-03-26 06:32:00,31.0,25.2,30.32,WNW,294,0.0,0.0,79,0.00,,,0.00,0,Wunderground v.1.15,2013-03-26 11:32:00,
2013-03-26 06:38:00,30.8,25.1,30.32,WNW,294,0.0,0.0,79,0.00,,,0.00,0,Wunderground v.1.15,2013-03-26 11:38:00,
2013-03-26 06:44:00,30.7,25.3,30.32,WNW,294,0.0,0.0,80,0.00,,,0.00,0,Wunderground v.1.15,2013-03-26 11:44:00,
2013-03-26 06:49:00,30.6,25.2,30.32,WNW,294,0.0,0.0,80,0.00,,,0.00,0,Wunderground v.1.15,2013-03-26 11:49:00,
2013-03-26 06:54:00,30.5,25.4,30.32,WNW,294,0.0,0.0,81,0.00,,,0.00,0,Wunderground v.1.15,2013-03-26 11:54:00,
2013-03-26 07:00:00,30.4,25.3,30.33,WNW,294,0.0,0.0,81,0.00,,,0.00,5,Wunderground v.1.15,2013-03-26 12:00:00,
2013-03-26 07:05:00,30.3,25.5,30.33,WNW,294,0.0,0.0,82,0.00,,,0.00,9,Wunderground v.1.15,2013-03-26 12:05:00,
2013-03-26 07:10:00,30.3,25.5,30.33,WNW,294,0.0,0.0,82,0.00,,,0.00,12,Wunderground v.1.15,2013-03-26 12:10:00,
2013-03-26 07:16:00,30.2,25.4,30.34,WNW,294,0.0,0.0,82,0.00,,,0.00,16,Wunderground v.1.15,2013-03-26 12:16:00,
2013-03-26 07:21:00,30.1,25.6,30.33,WNW,291,0.0,0.0,83,0.00,,,0.00,18,Wunderground v.1.15,2013-03-26 12:21:00,
2013-03-26 07:27:00,30.2,25.7,30.34,WNW,292,0.0,0.0,83,0.00,,,0.00,23,Wunderground v.1.15,2013-03-26 12:27:00,
2013-03-26 07:33:00,30.2,25.7,30.34,WNW,292,0.0,0.0,83,0.00,,,0.00,25,Wunderground v.1.15,2013-03-26 12:33:00,
2013-03-26 07:38:00,30.4,25.6,30.34,WNW,292,0.0,0.0,82,0.00,,,0.00,28,Wunderground v.1.15,2013-03-26 12:38:00,
2013-03-26 07:44:00,30.7,25.6,30.35,WNW,290,0.0,0.0,81,0.00,,,0.00,30,Wunderground v.1.15,2013-03-26 12:44:00,
2013-03-26 07:49:00,31.0,25.9,30.35,WNW,292,0.0,0.0,81,0.00,,,0.00,74,Wunderground v.1.15,2013-03-26 12:49:00,
2013-03-26 07:55:00,31.4,25.6,30.35,WNW,287,0.0,5.0,79,0.00,,,0.00,125,Wunderground v.1.15,2013-03-26 12:55:00,
2013-03-26 08:00:00,31.7,25.6,30.36,NW,307,1.0,3.0,78,0.00,,,0.00,39,Wunderground v.1.15,2013-03-26 13:00:00,
2013-03-26 08:05:00,32.1,25.7,30.36,NW,305,0.0,3.0,77,0.00,,,0.00,37,Wunderground v.1.15,2013-03-26 13:05:00,
2013-03-26 08:12:00,32.6,25.6,30.36,NW,323,1.0,1.0,75,0.00,,,0.00,195,Wunderground v.1.15,2013-03-26 13:12:00,
2013-03-26 08:17:00,33.0,25.9,30.36,WNW,296,1.0,3.0,75,0.00,,,0.00,211,Wunderground v.1.15,2013-03-26 13:17:00,
2013-03-26 08:23:00,33.5,26.1,30.37,WNW,290,1.0,1.0,74,0.00,,,0.00,232,Wunderground v.1.15,2013-03-26 13:23:00,
2013-03-26 08:28:00,33.9,25.5,30.37,NW,323,2.0,7.0,71,0.00,,,0.00,251,Wunderground v.1.15,2013-03-26 13:28:00,
2013-03-26 08:34:00,34.4,26.0,30.37,WNW,283,3.0,6.0,71,0.00,,,0.00,272,Wunderground v.1.15,2013-03-26 13:34:00,
2013-03-26 08:40:00,35.2,26.0,30.37,NW,319,2.0,5.0,69,0.00,,,0.00,292,Wunderground v.1.15,2013-03-26 13:40:00,
2013-03-26 08:45:00,35.6,25.7,30.37,NNW,329,2.0,5.0,67,0.00,,,0.00,309,Wunderground v.1.15,2013-03-26 13:45:00,
2013-03-26 08:50:00,36.1,25.8,30.37,NW,306,2.0,4.0,66,0.00,,,0.00,327,Wunderground v.1.15,2013-03-26 13:50:00,
2013-03-26 08:56:00,36.8,25.8,30.37,WNW,299,2.0,4.0,64,0.00,,,0.00,348,Wunderground v.1.15,2013-03-26 13:56:00,
2013-03-26 09:03:00,37.1,24.9,30.37,NW,321,4.0,4.0,61,0.00,,,0.00,371,Wunderground v.1.15,2013-03-26 14:03:00,
2013-03-26 09:08:00,37.3,25.1,30.37,North,352,4.0,4.0,61,0.00,,,0.00,387,Wunderground v.1.15,2013-03-26 14:08:00,
2013-03-26 09:13:00,37.7,25.5,30.38,NNW,329,2.0,3.0,61,0.00,,,0.00,404,Wunderground v.1.15,2013-03-26 14:13:00,
2013-03-26 09:18:00,37.8,25.1,30.38,NNW,329,3.0,6.0,60,0.00,,,0.00,422,Wunderground v.1.15,2013-03-26 14:18:00,
2013-03-26 09:24:00,37.9,24.8,30.38,WNW,300,4.0,6.0,59,0.00,,,0.00,441,Wunderground v.1.15,2013-03-26 14:24:00,
2013-03-26 09:29:00,37.9,24.4,30.38,NW,316,4.0,8.0,58,0.00,,,0.00,459,Wunderground v.1.15,2013-03-26 14:29:00,
2013-03-26 09:35:00,38.2,25.1,30.38,NE,42,4.0,4.0,59,0.00,,,0.00,478,Wunderground v.1.15,2013-03-26 14:35:00,
2013-03-26 09:40:00,38.8,25.7,30.38,NNW,337,2.0,2.0,59,0.00,,,0.01,497,Wunderground v.1.15,2013-03-26 14:40:00,
2013-03-26 09:45:00,39.0,26.7,30.38,NW,304,2.0,8.0,61,0.00,,,0.01,548,Wunderground v.1.15,2013-03-26 14:45:00,
2013-03-26 09:51:00,38.7,23.9,30.38,WNW,302,4.0,9.0,55,0.00,,,0.01,534,Wunderground v.1.15,2013-03-26 14:51:00,
2013-03-26 09:57:00,38.5,22.8,30.38,WNW,287,5.0,10.0,53,0.00,,,0.01,552,Wunderground v.1.15,2013-03-26 14:57:00,
2013-03-26 10:02:00,39.1,22.9,30.38,NW,317,4.0,4.0,52,0.00,,,0.01,566,Wunderground v.1.15,2013-03-26 15:02:00,
2013-03-26 10:08:00,39.1,22.5,30.38,NW,311,5.0,12.0,51,0.00,,,0.01,585,Wunderground v.1.15,2013-03-26 15:08:00,
2013-03-26 10:15:00,39.4,23.2,30.39,NNW,346,4.0,7.0,52,0.00,,,0.01,605,Wunderground v.1.15,2013-03-26 15:15:00,
2013-03-26 10:20:00,39.4,22.8,30.38,NW,324,4.0,4.0,51,0.00,,,0.01,619,Wunderground v.1.15,2013-03-26 15:20:00,
2013-03-26 10:27:00,40.0,23.8,30.38,NNW,333,2.0,10.0,52,0.00,,,0.01,638,Wunderground v.1.15,2013-03-26 15:27:00,
2013-03-26 10:32:00,39.8,22.7,30.38,West,276,4.0,5.0,50,0.00,,,0.01,652,Wunderground v.1.15,2013-03-26 15:32:00,
2013-03-26 10:37:00,40.1,23.9,30.38,NNW,341,4.0,14.0,52,0.00,,,0.01,666,Wunderground v.1.15,2013-03-26 15:37:00,
2013-03-26 10:43:00,40.1,22.9,30.38,NW,325,3.0,5.0,50,0.00,,,0.02,682,Wunderground v.1.15,2013-03-26 15:43:00,
2013-03-26 10:48:00,40.5,23.8,30.38,NNW,329,3.0,5.0,51,0.00,,,0.02,700,Wunderground v.1.15,2013-03-26 15:48:00,
2013-03-26 10:53:00,41.1,24.3,30.38,NW,308,2.0,11.0,51,0.00,,,0.02,708,Wunderground v.1.15,2013-03-26 15:53:00,
2013-03-26 10:59:00,41.0,24.2,30.38,NW,316,4.0,11.0,51,0.00,,,0.02,724,Wunderground v.1.15,2013-03-26 15:59:00,
2013-03-26 11:04:00,41.2,23.9,30.38,West,274,3.0,5.0,50,0.00,,,0.02,733,Wunderground v.1.15,2013-03-26 16:04:00,
2013-03-26 11:10:00,41.7,23.9,30.38,WSW,242,2.0,4.0,49,0.00,,,0.02,749,Wunderground v.1.15,2013-03-26 16:10:00,
2013-03-26 11:15:00,41.9,23.6,30.38,North,352,3.0,6.0,48,0.00,,,0.02,758,Wunderground v.1.15,2013-03-26 16:15:00,
2013-03-26 11:20:00,42.0,23.7,30.38,NNE,15,3.0,4.0,48,0.00,,,0.02,770,Wunderground v.1.15,2013-03-26 16:20:00,
2013-03-26 11:27:00,42.2,23.9,30.38,WNW,290,4.0,8.0,48,0.00,,,0.02,780,Wunderground v.1.15,2013-03-26 16:27:00,
2013-03-26 11:33:00,42.7,23.8,30.38,North,5,3.0,7.0,47,0.00,,,0.02,796,Wunderground v.1.15,2013-03-26 16:33:00,
2013-03-26 11:39:00,42.9,23.5,30.38,West,262,4.0,8.0,46,0.00,,,0.02,807,Wunderground v.1.15,2013-03-26 16:39:00,
2013-03-26 11:45:00,42.6,22.7,30.38,WNW,287,6.0,14.0,45,0.00,,,0.00,814,Wunderground v.1.15,2013-03-26 16:45:00,
2013-03-26 11:51:00,42.6,23.2,30.38,NW,319,5.0,6.0,46,0.00,,,0.00,824,Wunderground v.1.15,2013-03-26 16:51:00,
2013-03-26 11:56:00,42.8,24.4,30.38,NW,324,3.0,7.0,48,0.00,,,0.00,831,Wunderground v.1.15,2013-03-26 16:56:00,
2013-03-26 12:01:00,43.7,24.2,30.38,NW,308,2.0,3.0,46,0.00,,,0.00,840,Wunderground v.1.15,2013-03-26 17:01:00,
2013-03-26 12:07:00,43.7,23.7,30.38,NNW,347,3.0,10.0,45,0.00,,,0.00,844,Wunderground v.1.15,2013-03-26 17:07:00,
2013-03-26 12:13:00,43.9,23.9,30.38,WSW,242,4.0,8.0,45,0.00,,,0.00,691,Wunderground v.1.15,2013-03-26 17:13:00,
2013-03-26 12:18:00,44.2,24.2,30.37,WNW,287,4.0,8.0,45,0.00,,,0.01,863,Wunderground v.1.15,2013-03-26 17:18:00,
2013-03-26 12:23:00,44.2,24.2,30.36,North,5,4.0,7.0,45,0.00,,,0.01,868,Wunderground v.1.15,2013-03-26 17:23:00,
2013-03-26 12:29:00,44.9,23.7,30.36,NNW,333,2.0,7.0,43,0.00,,,0.01,875,Wunderground v.1.15,2013-03-26 17:29:00,
2013-03-26 12:35:00,45.1,23.3,30.36,NW,304,3.0,9.0,42,0.00,,,0.01,881,Wunderground v.1.15,2013-03-26 17:35:00,
2013-03-26 12:40:00,44.9,24.3,30.36,NW,307,4.0,6.0,44,0.00,,,0.01,889,Wunderground v.1.15,2013-03-26 17:40:00,
2013-03-26 12:45:00,45.2,22.9,30.36,NNE,21,5.0,11.0,41,0.00,,,0.01,889,Wunderground v.1.15,2013-03-26 17:45:00,
2013-03-26 12:50:00,45.1,23.3,30.36,NW,313,6.0,6.0,42,0.00,,,0.01,891,Wunderground v.1.15,2013-03-26 17:50:00,
2013-03-26 12:56:00,45.2,24.0,30.35,WNW,298,5.0,12.0,43,0.00,,,0.01,867,Wunderground v.1.15,2013-03-26 17:56:00,
2013-03-26 13:01:00,45.4,23.6,30.35,North,10,4.0,6.0,42,0.00,,,0.01,895,Wunderground v.1.15,2013-03-26 18:01:00,
2013-03-26 13:06:00,45.9,24.1,30.35,NNW,343,4.0,8.0,42,0.00,,,0.01,902,Wunderground v.1.15,2013-03-26 18:06:00,
2013-03-26 13:12:00,45.9,23.5,30.35,NNW,343,4.0,5.0,41,0.00,,,0.01,798,Wunderground v.1.15,2013-03-26 18:12:00,
2013-03-26 13:17:00,46.4,24.5,30.34,NW,308,4.0,14.0,42,0.00,,,0.01,902,Wunderground v.1.15,2013-03-26 18:17:00,
2013-03-26 13:23:00,47.0,24.5,30.34,WNW,284,4.0,10.0,41,0.00,,,0.01,907,Wunderground v.1.15,2013-03-26 18:23:00,
2013-03-26 13:28:00,47.2,24.1,30.34,NW,322,3.0,10.0,40,0.00,,,0.01,902,Wunderground v.1.15,2013-03-26 18:28:00,
2013-03-26 13:33:00,46.9,22.6,30.34,WSW,258,2.0,5.0,38,0.00,,,0.01,902,Wunderground v.1.15,2013-03-26 18:33:00,
2013-03-26 13:39:00,47.5,24.3,30.34,WNW,303,3.0,8.0,40,0.00,,,0.01,905,Wunderground v.1.15,2013-03-26 18:39:00,
2013-03-26 13:44:00,47.8,24.0,30.34,North,353,4.0,8.0,39,0.00,,,0.01,905,Wunderground v.1.15,2013-03-26 18:44:00,
2013-03-26 13:49:00,47.7,23.9,30.34,WNW,302,5.0,8.0,39,0.00,,,0.01,900,Wunderground v.1.15,2013-03-26 18:49:00,
2013-03-26 13:55:00,47.5,24.9,30.33,NW,318,3.0,5.0,41,0.00,,,0.01,896,Wunderground v.1.15,2013-03-26 18:55:00,
2013-03-26 14:00:00,47.7,23.9,30.33,WNW,283,2.0,2.0,39,0.00,,,0.01,893,Wunderground v.1.15,2013-03-26 19:00:00,
2013-03-26 14:05:00,47.7,23.3,30.33,NW,310,5.0,8.0,38,0.00,,,0.01,891,Wunderground v.1.15,2013-03-26 19:05:00,
2013-03-26 14:10:00,47.9,24.1,30.33,NW,306,3.0,3.0,39,0.00,,,0.01,884,Wunderground v.1.15,2013-03-26 19:10:00,
2013-03-26 14:17:00,48.7,24.8,30.32,NNW,327,1.0,6.0,39,0.00,,,0.01,877,Wunderground v.1.15,2013-03-26 19:17:00,
2013-03-26 14:23:00,49.0,25.1,30.32,WNW,293,4.0,5.0,39,0.00,,,0.01,867,Wunderground v.1.15,2013-03-26 19:23:00,
2013-03-26 14:28:00,49.2,24.6,30.32,WNW,291,4.0,9.0,38,0.00,,,0.01,863,Wunderground v.1.15,2013-03-26 19:28:00,
2013-03-26 14:34:00,48.9,23.7,30.32,NW,314,5.0,6.0,37,0.00,,,0.01,858,Wunderground v.1.15,2013-03-26 19:34:00,
2013-03-26 14:39:00,48.8,24.3,30.32,North,356,5.0,8.0,38,0.00,,,0.01,847,Wunderground v.1.15,2013-03-26 19:39:00,
2013-03-26 14:45:00,49.1,25.2,30.32,WNW,291,5.0,7.0,39,0.00,,,0.01,833,Wunderground v.1.15,2013-03-26 19:45:00,
2013-03-26 14:52:00,49.4,24.8,30.31,NNW,334,5.0,12.0,38,0.00,,,0.01,821,Wunderground v.1.15,2013-03-26 19:52:00,
2013-03-26 14:58:00,49.7,24.5,30.31,NNE,23,5.0,12.0,37,0.00,,,0.01,812,Wunderground v.1.15,2013-03-26 19:58:00,
2013-03-26 15:03:00,49.6,24.4,30.31,NW,316,5.0,5.0,37,0.00,,,0.01,802,Wunderground v.1.15,2013-03-26 20:03:00,
2013-03-26 15:08:00,49.9,24.6,30.31,WNW,294,4.0,11.0,37,0.00,,,0.01,791,Wunderground v.1.15,2013-03-26 20:08:00,
2013-03-26 15:13:00,50.1,24.8,30.31,NNW,331,5.0,7.0,37,0.00,,,0.01,777,Wunderground v.1.15,2013-03-26 20:13:00,
2013-03-26 15:19:00,49.8,23.9,30.31,NNE,28,5.0,8.0,36,0.00,,,0.01,763,Wunderground v.1.15,2013-03-26 20:19:00,
2013-03-26 15:24:00,50.1,25.5,30.31,NW,312,4.0,7.0,38,0.00,,,0.01,751,Wunderground v.1.15,2013-03-26 20:24:00,
2013-03-26 15:29:00,50.2,25.5,30.30,NNW,340,3.0,7.0,38,0.00,,,0.01,737,Wunderground v.1.15,2013-03-26 20:29:00,
2013-03-26 15:35:00,50.5,25.2,30.30,NW,321,4.0,8.0,37,0.00,,,0.01,721,Wunderground v.1.15,2013-03-26 20:35:00,
2013-03-26 15:40:00,50.6,25.3,30.30,NW,312,5.0,5.0,37,0.00,,,0.01,707,Wunderground v.1.15,2013-03-26 20:40:00,
2013-03-26 15:45:00,50.8,25.4,30.30,North,354,5.0,9.0,37,0.00,,,0.01,694,Wunderground v.1.15,2013-03-26 20:45:00,
2013-03-26 15:51:00,50.5,24.5,30.30,NNW,346,6.0,6.0,36,0.00,,,0.01,679,Wunderground v.1.15,2013-03-26 20:51:00,
2013-03-26 15:56:00,50.3,25.0,30.30,WNW,282,5.0,7.0,37,0.00,,,0.01,663,Wunderground v.1.15,2013-03-26 20:56:00,
2013-03-26 16:02:00,50.5,25.2,30.30,NNW,335,5.0,13.0,37,0.00,,,0.01,645,Wunderground v.1.15,2013-03-26 21:02:00,
2013-03-26 16:07:00,50.5,25.2,30.30,NNW,329,6.0,13.0,37,0.00,,,0.01,631,Wunderground v.1.15,2013-03-26 21:07:00,
2013-03-26 16:13:00,51.0,25.0,30.30,NW,325,5.0,9.0,36,0.00,,,0.01,612,Wunderground v.1.15,2013-03-26 21:13:00,
2013-03-26 16:19:00,51.0,25.0,30.30,North,350,4.0,9.0,36,0.00,,,0.01,592,Wunderground v.1.15,2013-03-26 21:19:00,
2013-03-26 16:25:00,51.0,25.0,30.30,NW,310,5.0,8.0,36,0.00,,,0.01,575,Wunderground v.1.15,2013-03-26 21:25:00,
2013-03-26 16:30:00,50.6,25.3,30.30,North,357,6.0,6.0,37,0.00,,,0.01,559,Wunderground v.1.15,2013-03-26 21:30:00,
2013-03-26 16:36:00,50.5,25.2,30.30,NW,304,5.0,8.0,37,0.00,,,0.01,540,Wunderground v.1.15,2013-03-26 21:36:00,
2013-03-26 16:42:00,50.6,25.3,30.30,North,5,5.0,6.0,37,0.00,,,0.01,519,Wunderground v.1.15,2013-03-26 21:42:00,
2013-03-26 16:47:00,50.8,25.4,30.30,North,350,4.0,6.0,37,0.00,,,0.01,503,Wunderground v.1.15,2013-03-26 21:47:00,
2013-03-26 16:52:00,51.2,25.8,30.30,NW,309,3.0,8.0,37,0.00,,,0.01,485,Wunderground v.1.15,2013-03-26 21:52:00,
2013-03-26 16:57:00,51.0,26.3,30.30,North,5,4.0,8.0,38,0.00,,,0.01,466,Wunderground v.1.15,2013-03-26 21:57:00,
2013-03-26 17:03:00,50.9,26.2,30.29,NW,325,5.0,8.0,38,0.00,,,0.01,445,Wunderground v.1.15,2013-03-26 22:03:00,
2013-03-26 17:08:00,50.7,26.0,30.30,North,10,6.0,11.0,38,0.00,,,0.01,427,Wunderground v.1.15,2013-03-26 22:08:00,
2013-03-26 17:13:00,50.6,25.9,30.29,NNW,346,5.0,9.0,38,0.00,,,0.01,411,Wunderground v.1.15,2013-03-26 22:13:00,
2013-03-26 17:19:00,50.7,26.0,30.30,North,5,4.0,9.0,38,0.00,,,0.01,388,Wunderground v.1.15,2013-03-26 22:19:00,
2013-03-26 17:24:00,50.6,25.9,30.30,NNW,344,4.0,13.0,38,0.00,,,0.01,371,Wunderground v.1.15,2013-03-26 22:24:00,
2013-03-26 17:29:00,50.7,26.0,30.30,NNW,334,3.0,13.0,38,0.00,,,0.01,352,Wunderground v.1.15,2013-03-26 22:29:00,
2013-03-26 17:34:00,50.5,27.0,30.30,WNW,294,3.0,5.0,40,0.00,,,0.01,330,Wunderground v.1.15,2013-03-26 22:34:00,
2013-03-26 17:40:00,50.5,27.0,30.29,NW,312,3.0,6.0,40,0.00,,,0.01,308,Wunderground v.1.15,2013-03-26 22:40:00,
2013-03-26 17:45:00,50.3,26.9,30.30,WNW,303,4.0,9.0,40,0.00,,,0.01,288,Wunderground v.1.15,2013-03-26 22:45:00,
2013-03-26 17:51:00,50.2,26.8,30.30,NNE,15,4.0,4.0,40,0.00,,,0.01,265,Wunderground v.1.15,2013-03-26 22:51:00,
2013-03-26 17:57:00,50.4,27.0,30.30,North,350,1.0,4.0,40,0.00,,,0.01,239,Wunderground v.1.15,2013-03-26 22:57:00,
2013-03-26 18:03:00,50.4,27.6,30.30,NW,326,2.0,2.0,41,0.00,,,0.01,211,Wunderground v.1.15,2013-03-26 23:03:00,
2013-03-26 18:08:00,50.4,27.6,30.30,NNW,339,1.0,6.0,41,0.00,,,0.01,188,Wunderground v.1.15,2013-03-26 23:08:00,
2013-03-26 18:13:00,50.2,26.8,30.30,NNW,340,3.0,9.0,40,0.00,,,0.01,167,Wunderground v.1.15,2013-03-26 23:13:00,
2013-03-26 18:18:00,49.7,26.9,30.30,North,350,4.0,9.0,41,0.00,,,0.01,144,Wunderground v.1.15,2013-03-26 23:18:00,
2013-03-26 18:24:00,49.6,27.4,30.30,North,352,3.0,3.0,42,0.00,,,0.01,123,Wunderground v.1.15,2013-03-26 23:24:00,
2013-03-26 18:29:00,49.4,27.2,30.31,NNW,327,3.0,6.0,42,0.00,,,0.01,104,Wunderground v.1.15,2013-03-26 23:29:00,
2013-03-26 18:34:00,49.2,26.5,30.31,North,5,4.0,8.0,41,0.00,,,0.01,84,Wunderground v.1.15,2013-03-26 23:34:00,
2013-03-26 18:39:00,48.9,26.8,30.31,NW,324,4.0,8.0,42,0.00,,,0.01,67,Wunderground v.1.15,2013-03-26 23:39:00,
2013-03-26 18:45:00,48.6,27.1,30.31,NNW,333,2.0,5.0,43,0.00,,,0.01,30,Wunderground v.1.15,2013-03-26 23:45:00,
2013-03-26 18:50:00,48.2,26.7,30.31,NW,315,1.0,5.0,43,0.00,,,0.01,25,Wunderground v.1.15,2013-03-26 23:50:00,
2013-03-26 18:56:00,47.8,26.9,30.31,North,10,1.0,5.0,44,0.00,,,0.01,19,Wunderground v.1.15,2013-03-26 23:56:00,
2013-03-26 19:02:00,47.4,27.1,30.31,North,357,1.0,4.0,45,0.00,,,0.01,16,Wunderground v.1.15,2013-03-27 00:02:00,
2013-03-26 19:08:00,47.0,27.3,30.32,NNW,344,1.0,4.0,46,0.00,,,0.01,12,Wunderground v.1.15,2013-03-27 00:08:00,
2013-03-26 19:13:00,46.8,27.6,30.32,NNW,344,0.0,1.0,47,0.00,,,0.01,7,Wunderground v.1.15,2013-03-27 00:13:00,
2013-03-26 19:18:00,46.4,27.8,30.32,NNW,341,0.0,1.0,48,0.00,,,0.01,5,Wunderground v.1.15,2013-03-27 00:18:00,
2013-03-26 19:24:00,46.0,28.4,30.32,NW,318,0.0,0.0,50,0.00,,,0.01,0,Wunderground v.1.15,2013-03-27 00:24:00,
2013-03-26 19:29:00,45.7,27.6,30.32,NNW,337,0.0,0.0,49,0.00,,,0.01,0,Wunderground v.1.15,2013-03-27 00:29:00,
2013-03-26 19:34:00,45.4,27.8,30.33,NNW,346,0.0,0.0,50,0.00,,,0.01,0,Wunderground v.1.15,2013-03-27 00:34:00,
2013-03-26 19:40:00,45.1,27.6,30.33,NNW,343,0.0,0.0,50,0.00,,,0.01,0,Wunderground v.1.15,2013-03-27 00:40:00,
2013-03-26 19:45:00,45.0,27.9,30.33,North,10,0.0,0.0,51,0.00,,,0.01,0,Wunderground v.1.15,2013-03-27 00:45:00,
2013-03-26 19:52:00,44.6,28.0,30.33,NNW,346,1.0,1.0,52,0.00,,,0.01,0,Wunderground v.1.15,2013-03-27 00:52:00,
2013-03-26 19:57:00,44.4,27.9,30.34,NNW,341,0.0,1.0,52,0.00,,,0.01,0,Wunderground v.1.15,2013-03-27 00:57:00,
2013-03-26 20:02:00,44.2,27.7,30.34,North,349,0.0,0.0,52,0.00,,,0.01,0,Wunderground v.1.15,2013-03-27 01:02:00,
2013-03-26 20:08:00,43.9,27.9,30.34,NNW,333,0.0,0.0,53,0.00,,,0.01,0,Wunderground v.1.15,2013-03-27 01:08:00,
2013-03-26 20:13:00,43.6,28.0,30.34,NNW,335,0.0,0.0,54,0.00,,,0.01,0,Wunderground v.1.15,2013-03-27 01:13:00,
2013-03-26 20:19:00,43.4,27.8,30.34,NNW,331,0.0,0.0,54,0.00,,,0.01,0,Wunderground v.1.15,2013-03-27 01:19:00,
2013-03-26 20:25:00,43.1,28.0,30.34,North,350,0.0,4.0,55,0.00,,,0.01,0,Wunderground v.1.15,2013-03-27 01:25:00,
2013-03-26 20:30:00,43.0,27.9,30.34,North,353,1.0,5.0,55,0.00,,,0.01,0,Wunderground v.1.15,2013-03-27 01:30:00,
2013-03-26 20:37:00,42.8,27.7,30.34,NW,325,1.0,5.0,55,0.00,,,0.01,0,Wunderground v.1.15,2013-03-27 01:37:00,
2013-03-26 20:42:00,42.7,28.1,30.34,NNW,345,0.0,1.0,56,0.00,,,0.01,0,Wunderground v.1.15,2013-03-27 01:42:00,
2013-03-26 20:47:00,42.6,27.5,30.34,NNW,341,0.0,1.0,55,0.00,,,0.01,0,Wunderground v.1.15,2013-03-27 01:47:00,
2013-03-26 20:52:00,42.5,27.9,30.34,NNW,341,0.0,0.0,56,0.00,,,0.01,0,Wunderground v.1.15,2013-03-27 01:52:00,
2013-03-26 20:58:00,42.3,27.7,30.35,NNW,345,0.0,4.0,56,0.00,,,0.01,0,Wunderground v.1.15,2013-03-27 01:58:00,
2013-03-26 21:03:00,42.2,27.6,30.35,NNW,343,0.0,0.0,56,0.00,,,0.01,0,Wunderground v.1.15,2013-03-27 02:03:00,
2013-03-26 21:09:00,42.0,27.9,30.35,NNE,21,0.0,0.0,57,0.00,,,0.01,0,Wunderground v.1.15,2013-03-27 02:09:00,
2013-03-26 21:14:00,41.8,27.7,30.35,NNE,20,0.0,0.0,57,0.00,,,0.01,0,Wunderground v.1.15,2013-03-27 02:14:00,
2013-03-26 21:19:00,41.7,28.0,30.36,NNE,19,0.0,0.0,58,0.00,,,0.01,0,Wunderground v.1.15,2013-03-27 02:19:00,
2013-03-26 21:25:00,41.5,27.8,30.36,North,10,0.0,4.0,58,0.00,,,0.01,0,Wunderground v.1.15,2013-03-27 02:25:00,
2013-03-26 21:30:00,41.3,28.0,30.36,North,5,0.0,0.0,59,0.00,,,0.01,0,Wunderground v.1.15,2013-03-27 02:30:00,
2013-03-26 21:36:00,41.2,27.9,30.36,North,5,0.0,2.0,59,0.00,,,0.01,0,Wunderground v.1.15,2013-03-27 02:36:00,
2013-03-26 21:42:00,41.1,27.9,30.36,NE,40,0.0,4.0,59,0.00,,,0.01,0,Wunderground v.1.15,2013-03-27 02:42:00,
2013-03-26 21:47:00,40.9,28.1,30.36,NNE,29,0.0,4.0,60,0.00,,,0.01,0,Wunderground v.1.15,2013-03-27 02:47:00,
2013-03-26 21:53:00,40.7,27.9,30.36,NNE,27,0.0,1.0,60,0.00,,,0.01,0,Wunderground v.1.15,2013-03-27 02:53:00,
2013-03-26 21:59:00,40.6,28.2,30.37,NNE,26,0.0,1.0,61,0.00,,,0.01,0,Wunderground v.1.15,2013-03-27 02:59:00,
2013-03-26 22:04:00,40.4,28.0,30.37,NNE,25,0.0,0.0,61,0.00,,,0.01,0,Wunderground v.1.15,2013-03-27 03:04:00,
2013-03-26 22:10:00,40.3,27.9,30.37,NNE,25,0.0,0.0,61,0.00,,,0.01,0,Wunderground v.1.15,2013-03-27 03:10:00,
2013-03-26 22:16:00,40.1,27.7,30.37,NNE,25,0.0,1.0,61,0.00,,,0.01,0,Wunderground v.1.15,2013-03-27 03:16:00,
2013-03-26 22:22:00,40.0,28.0,30.37,NNE,25,0.0,2.0,62,0.00,,,0.01,0,Wunderground v.1.15,2013-03-27 03:22:00,
2013-03-26 22:28:00,39.9,27.9,30.38,NNE,26,0.0,2.0,62,0.00,,,0.01,0,Wunderground v.1.15,2013-03-27 03:28:00,
2013-03-26 22:33:00,39.7,27.7,30.38,NNE,26,0.0,0.0,62,0.00,,,0.01,0,Wunderground v.1.15,2013-03-27 03:33:00,
2013-03-26 22:39:00,39.5,27.9,30.38,ENE,69,0.0,0.0,63,0.00,,,0.01,0,Wunderground v.1.15,2013-03-27 03:39:00,
2013-03-26 22:44:00,39.5,27.9,30.37,ENE,60,0.0,5.0,63,0.00,,,0.01,0,Wunderground v.1.15,2013-03-27 03:44:00,
2013-03-26 22:50:00,39.5,27.9,30.37,NNE,23,0.0,0.0,63,0.00,,,0.01,0,Wunderground v.1.15,2013-03-27 03:50:00,
2013-03-26 22:56:00,39.5,27.9,30.37,NE,44,0.0,0.0,63,0.00,,,0.01,0,Wunderground v.1.15,2013-03-27 03:56:00,
2013-03-26 23:00:00,39.4,28.2,30.37,NNE,20,0.0,0.0,64,0.00,,,0.01,0,Wunderground v.1.15,2013-03-27 04:00:00,
2013-03-26 23:01:00,39.4,27.8,30.37,NNE,23,0.0,0.0,63,0.00,,,0.01,0,Wunderground v.1.15,2013-03-27 04:01:00,
2013-03-26 23:06:00,39.3,28.1,30.37,NNE,24,0.0,0.0,64,0.00,,,0.01,0,Wunderground v.1.15,2013-03-27 04:06:00,
2013-03-26 23:12:00,39.1,27.9,30.38,NNE,21,0.0,0.0,64,0.00,,,0.01,0,Wunderground v.1.15,2013-03-27 04:12:00,
2013-03-26 23:17:00,39.0,28.2,30.38,NNE,20,0.0,0.0,65,0.00,,,0.01,0,Wunderground v.1.15,2013-03-27 04:17:00,
2013-03-26 23:23:00,38.8,28.0,30.37,NE,34,0.0,0.0,65,0.00,,,0.01,0,Wunderground v.1.15,2013-03-27 04:23:00,
2013-03-26 23:29:00,38.5,27.7,30.37,NE,34,0.0,0.0,65,0.00,,,0.01,0,Wunderground v.1.15,2013-03-27 04:29:00,
2013-03-26 23:35:00,38.4,28.0,30.37,NE,34,0.0,0.0,66,0.00,,,0.01,0,Wunderground v.1.15,2013-03-27 04:35:00,
2013-03-26 23:40:00,38.2,27.8,30.37,NE,34,0.0,0.0,66,0.00,,,0.01,0,Wunderground v.1.15,2013-03-27 04:40:00,
2013-03-26 23:46:00,37.9,27.9,30.37,NE,34,0.0,0.0,67,0.00,,,0.01,0,Wunderground v.1.15,2013-03-27 04:46:00,
2013-03-26 23:52:00,37.8,27.8,30.37,NE,34,0.0,0.0,67,0.00,,,0.01,0,Wunderground v.1.15,2013-03-27 04:52:00,
2013-03-26 23:57:00,37.7,28.1,30.37,NE,35,0.0,0.0,68,0.00,,,0.01,0,Wunderground v.1.15,2013-03-27 04:57:00,